Location: Beneden-Haastrecht
(52.0012°N, 4.7557°E)
Time: 13:47:28
(UTC+00:00)

CZ-2D R/B - Pass Details

Date: 24 October 2020
Orbit: 522 x 537 km, 97.4° (Epoch: 28 November)

Event Time Altitude Azimuth Distance (km) Brightness Sun altitude
Rises 18:14:48 0° 178° (S) 2,655 6.8 -17.1°
Reaches altitude 10° 18:16:57 10° 184° (S) 1,768 5.9 -17.5°
Maximum altitude 18:20:40 50° 260° (W) 681 4.2 -18.0°
Drops below altitude 10° 18:24:24 10° 337° (NNW) 1,776 6.2 -18.6°
Sets 18:26:34 0° 343° (NNW) 2,669 7.1 -19.0°
